This demonstration page uses our WeatherBlox Daily Observations layout. Learn more.

Left ArrowRight Arrow

Hourly Observations for June 20, 2019

Temp ( °F °C ) Dew Point ( °F °C ) Humidity (%) Winds ( mph kmh ) Pressure ( in mb ) Visibility ( mi km ) Precip ( " mm )
12:56 am 00:56 Clear 62 16.7 61 16.1 96 96 SE 6 9 29.69 1005 10 16 0.00 0.00
1:56 am 01:56 Clear 62 16.7 60 15.6 93 93 S 7 11 29.67 1005 10 16 0.00 0.00
2:56 am 02:56 Clear 63 17.2 61 16.1 93 93 S 9 15 29.65 1004 10 16 0.00 0.00
3:39 am 03:39 Partly Cloudy with Nearby Thunderstorms 63 17 61 16 94 94 SE 5 7 29.65 1004 9 14 0.00 0.00
3:56 am 03:56 Mostly Cloudy with Nearby Thunderstorms 63 17.2 61 16.1 93 93 E 6 9 29.67 1005 10 16 0.00 0.00
4:44 am 04:44 Mostly Cloudy 63 17 63 17 100 100 S 15 24 29.63 1003 N/A 0.05 1.27
4:56 am 04:56 Mostly Cloudy 64 17.8 62 16.7 93 93 S 9 15 29.64 1004 10 16 0.05 1.27
5:04 am 05:04 Mostly Cloudy with Nearby Thunderstorms 64 18 61 16 88 88 SSW 13 20 29.66 1004 9 14 0.00 0.00
5:47 am 05:47 Cloudy with Light Rain 64 18 63 17 94 94 SSW 5 7 29.71 1006 10 16 0.02 0.51
5:56 am 05:56 Cloudy with Light Rain 64 17.8 62 16.7 93 93 E 6 9 29.73 1007 10 16 0.02 0.51
6:56 am 06:56 Mostly Sunny 63 17.2 62 16.7 97 97 SE 12 19 29.70 1006 10 16 0.01 0.25
7:56 am 07:56 Sunny 65 18.3 62 16.7 90 90 SSE 13 20 29.67 1005 10 16 0.00 0.00
8:56 am 08:56 Sunny 69 20.6 62 16.7 78 78 S 18 30 29.68 1005 10 16 0.00 0.00
9:56 am 09:56 Sunny 73 22.8 63 17.2 71 71 S 22 35 29.67 1005 10 16 0.00 0.00
10:56 am 10:56 Sunny 76 24.4 64 17.8 67 67 SSW 21 33 29.66 1004 10 16 0.00 0.00
11:56 am 11:56 Sunny 78 25.6 65 18.3 64 64 SW 18 30 29.67 1005 10 16 0.00 0.00
12:56 pm 12:56 Sunny 81 27.2 65 18.3 58 58 W 14 22 29.68 1005 10 16 0.00 0.00
1:56 pm 13:56 Sunny 82 27.8 64 17.8 55 55 WNW 12 19 29.69 1005 10 16 0.00 0.00
2:56 pm 14:56 Sunny 82 27.8 65 18.3 56 56 N 13 20 29.68 1005 10 16 0.00 0.00
3:56 pm 15:56 Sunny 82 27.8 66 18.9 58 58 N 9 15 29.69 1005 10 16 0.00 0.00
4:56 pm 16:56 Sunny 81 27.2 65 18.3 58 58 NE 7 11 29.69 1005 10 16 0.00 0.00
5:56 pm 17:56 Sunny 81 27.2 67 19.4 62 62 NNE 9 15 29.69 1005 10 16 0.00 0.00
6:56 pm 18:56 Sunny 81 27.2 65 18.3 58 58 NE 12 19 29.66 1004 10 16 0.00 0.00
7:56 pm 19:56 Sunny 79 26.1 66 18.9 65 65 E 12 19 29.65 1004 10 16 0.00 0.00
8:56 pm 20:56 Sunny 74 23.3 67 19.4 79 79 ENE 8 13 29.65 1004 10 16 0.00 0.00
9:56 pm 21:56 Clear 72 22.2 67 19.4 84 84 ENE 9 15 29.66 1005 10 16 0.00 0.00
10:56 pm 22:56 Clear 71 21.7 66 18.9 84 84 NE 12 19 29.63 1003 10 16 0.00 0.00
11:45 pm 23:45 Mostly Cloudy with Nearby Thunderstorms 72 22 66 19 83 83 NNE 14 22 29.59 1002 8 13 0.00 0.00
11:56 pm 23:56 Mostly Cloudy with Thunderstorms 71 21.7 67 19.4 87 87 NNE 15 24 29.62 1003 10 16 0.00 0.03

Powered by AerisWeather